Simultaneous Nadir Overpasses (SNOs) Predictions

Prediction of SNOs between HIMAWARI-9 and NOAA-21 Satellite Orbit:

Table of predicted SNOs for the next 14.0 days since TLE Epoch: 6/7/2025
Index Date Time (HIMAWARI-9) HIMAWARI-9 Lat,Lon NOAA-21 Lat,Lon Distance(km) Time Diff (sec)
1 06/09/2025 04:04:21 0.02, 140.76 -0.20, 139.87 102.09 80
2 06/10/2025 03:48:18 0.02, 140.77 0.84, 144.39 413.61 80
3 06/11/2025 16:10:06 -0.02, 140.77 0.35, 139.12 187.74 80
4 06/12/2025 15:48:42 -0.02, 140.77 -0.63, 143.66 328.12 80
5 06/14/2025 04:10:40 0.01, 140.78 -0.51, 138.34 277.33 80
6 06/15/2025 03:54:35 0.00, 140.78 0.48, 142.87 239.16 80
7 06/16/2025 16:16:24 -0.00, 140.77 0.71, 137.60 360.61 80
8 06/17/2025 15:54:59 0.00, 140.76 -0.28, 142.14 156.16 80
9 06/19/2025 04:16:57 -0.00, 140.76 -0.86, 136.82 448.48 80
10 06/20/2025 04:00:53 -0.00, 140.75 0.13, 141.35 68.69 80
